Location: Peebles
(55.6412°N, 3.1714°W)
Time: 15:48:58
(UTC+01:00)

deb Agena D - Pass Details

Date: 18 September 2024
Orbit: 793 x 976 km, 99.8° (Epoch: 03 October)

Event Time Altitude Azimuth Distance (km) Brightness Sun altitude
Rises 02:21:10 0° 24° (NNE) 3,437 10.5 -30.6°
Reaches altitude 10° 02:23:54 10° 36° (NE) 2,525 9.5 -30.5°
Maximum altitude 02:28:37 27° 93° (E) 1,654 7.8 -30.2°
Enters shadow 02:29:36 26° 110° (ESE) 1,709 7.8 -30.2°
